Location: Cicognara
(44.9500°N, 10.4667°E)
Time: 09:28:31
(UTC+00:00)

Cosmos 1802 Rocket - Pass Details

Date: 20 June 2021
Orbit: 955 x 1010 km, 82.9° (Epoch: 04 August)

Event Time Altitude Azimuth Distance (km) Brightness Sun altitude
Rises 20:47:29 0° 350° (N) 3,689 8.3 -13.3°
Reaches altitude 10° 20:50:00 10° 348° (NNW) 2,745 7.5 -13.6°
Maximum altitude 20:56:16 74° 265° (W) 1,034 4.2 -14.2°
Enters shadow 21:01:52 14° 183° (S) 2,499 5.7 -14.7°
